This is the latest recevied weather packets stored in our database for station/object SQ7IQO. If no packets are shown the sender has not sent any weather packets the latest 10 day(s).
| Time | Temp. | Humidity | Pressure | Rain* | Wind** | Luminosity | Snow |
|---|---|---|---|---|---|---|---|
| 1787655276 | 21.11° C | 57% | 1021.7 hPa | 0 mm | 0.45 m/s, ° | - | - |
| 1787655217 | 21.67° C | 59% | 1021.7 hPa | 0 mm | 0.89 m/s, ° | - | - |
| 1787655156 | 21.67° C | 61% | 1021.7 hPa | 0 mm | 0 m/s | - | - |
| 1787655096 | 21.11° C | 61% | 1021.7 hPa | 0 mm | 0 m/s | - | - |
| 1787655036 | 21.11° C | 59% | 1021.8 hPa | 0 mm | 0 m/s | - | - |
| 1787654976 | 21.11° C | 57% | 1021.7 hPa | 0 mm | 0 m/s | - | - |
| 1787654916 | 21.11° C | 59% | 1021.8 hPa | 0 mm | 0.45 m/s, ° | - | - |
| 1787654856 | 21.11° C | 58% | 1021.8 hPa | 0 mm | 0.45 m/s, ° | - | - |
| 1787654796 | 21.11° C | 63% | 1021.8 hPa | 0 mm | 0 m/s | - | - |
| 1787654736 | 20.56° C | 62% | 1021.9 hPa | 0 mm | 0 m/s | - | - |
| 1787654676 | 20.56° C | 60% | 1021.8 hPa | 0 mm | 0 m/s | - | - |
| 1787654616 | 20.56° C | 59% | 1021.9 hPa | 0 mm | 0 m/s | - | - |
| 1787654556 | 20° C | 63% | 1021.8 hPa | 0 mm | 0 m/s | - | - |
| 1787654496 | 20° C | 64% | 1021.9 hPa | 0 mm | 0 m/s | - | - |
| 1787654436 | 20° C | 61% | 1021.9 hPa | 0 mm | 0 m/s | - | - |
| 1787654376 | 20° C | 61% | 1021.8 hPa | 0 mm | 0 m/s | - | - |
| 1787654316 | 20.56° C | 59% | 1021.9 hPa | 0 mm | 0 m/s | - | - |
| 1787654256 | 21.11° C | 59% | 1021.9 hPa | 0 mm | 0.45 m/s, ° | - | - |
| 1787654196 | 21.11° C | 62% | 1021.9 hPa | 0 mm | 0 m/s | - | - |
| 1787654136 | 21.11° C | 58% | 1021.9 hPa | 0 mm | 0.45 m/s, ° | - | - |
| 1787654076 | 21.67° C | 60% | 1021.9 hPa | 0 mm | 0.45 m/s, ° | - | - |
| 1787654016 | 21.67° C | 58% | 1021.9 hPa | 0 mm | 0.45 m/s, ° | - | - |
| 1787653956 | 21.11° C | 61% | 1021.9 hPa | 0 mm | 0 m/s | - | - |
| 1787653896 | 21.11° C | 61% | 1021.8 hPa | 0 mm | 0.45 m/s, ° | - | - |
| 1787653836 | 21.11° C | 59% | 1021.9 hPa | 0 mm | 0 m/s | - | - |
* Rain latest hour (hover to see other rain measurements)
** Current wind speed in m/s (hover to see current wind gust speed)